owner,sensor,date,latitude,longitude,vertical_datum,sea_water_practical_salinity,qcFlag 
TCOON,ioos:station:TCOON:074:1,2014-01-01T00:30:00Z,27.8516,-97.4820,0.0,27.6,1111122 
TCOON,ioos:station:TCOON:074:1,2014-01-01T01:30:00Z,27.8516,-97.4820,0.0,29.2,1111122 
TCOON,ioos:station:TCOON:074:1,2014-01-01T02:00:00Z,27.8516,-97.4820,0.0,29.3,1111122 
TCOON,ioos:station:TCOON:074:1,2014-01-01T02:30:00Z,27.8516,-97.4820,0.0,29.3,1111122 
TCOON,ioos:station:TCOON:074:1,2014-01-01T03:00:00Z,27.8516,-97.4820,0.0,29.3,1111122 
TCOON,ioos:station:TCOON:074:1,2014-01-01T04:00:00Z,27.8516,-97.4820,0.0,29.5,1111122 
TCOON,ioos:station:TCOON:074:1,2014-01-01T04:30:00Z,27.8516,-97.4820,0.0,29.5,1111122 
TCOON,ioos:station:TCOON:074:1,2014-01-01T05:00:00Z,27.8516,-97.4820,0.0,29.6,1111122 
TCOON,ioos:station:TCOON:074:1,2014-01-01T05:30:00Z,27.8516,-97.4820,0.0,29.6,1111122 
TCOON,ioos:station:TCOON:074:1,2014-01-01T08:00:00Z,27.8516,-97.4820,0.0,29.5,1111122 
TCOON,ioos:station:TCOON:074:1,2014-01-01T12:00:00Z,27.8516,-97.4820,0.0,29.5,1111122 
TCOON,ioos:station:TCOON:074:1,2014-01-01T12:30:00Z,27.8516,-97.4820,0.0,29.5,1111122 
TCOON,ioos:station:TCOON:074:1,2014-01-01T14:00:00Z,27.8516,-97.4820,0.0,29.2,1111122 
TCOON,ioos:station:TCOON:074:1,2014-01-01T14:30:00Z,27.8516,-97.4820,0.0,29.1,1111122 
TCOON,ioos:station:TCOON:074:1,2014-01-01T15:00:00Z,27.8516,-97.4820,0.0,29.2,1111122 
TCOON,ioos:station:TCOON:074:1,2014-01-01T15:30:00Z,27.8516,-97.4820,0.0,29.1,1111122 
TCOON,ioos:station:TCOON:074:1,2014-01-01T16:00:00Z,27.8516,-97.4820,0.0,29.1,1111122 
TCOON,ioos:station:TCOON:074:1,2014-01-01T16:30:00Z,27.8516,-97.4820,0.0,29.0,1111122 
TCOON,ioos:station:TCOON:074:1,2014-01-01T17:00:00Z,27.8516,-97.4820,0.0,29.0,1111122 
TCOON,ioos:station:TCOON:074:1,2014-01-01T18:00:00Z,27.8516,-97.4820,0.0,29.0,1111122 
TCOON,ioos:station:TCOON:074:1,2014-01-01T19:00:00Z,27.8516,-97.4820,0.0,28.9,1111122 
TCOON,ioos:station:TCOON:074:1,2014-01-01T20:00:00Z,27.8516,-97.4820,0.0,28.9,1111122 
TCOON,ioos:station:TCOON:074:1,2014-01-01T20:30:00Z,27.8516,-97.4820,0.0,28.9,1111122 
TCOON,ioos:station:TCOON:074:1,2014-01-01T21:00:00Z,27.8516,-97.4820,0.0,28.9,1111122 
TCOON,ioos:station:TCOON:074:1,2014-01-01T22:00:00Z,27.8516,-97.4820,0.0,28.9,1111122 
TCOON,ioos:station:TCOON:074:1,2014-01-01T22:30:00Z,27.8516,-97.4820,0.0,29.1,1111122 
TCOON,ioos:station:TCOON:074:1,2014-01-01T23:30:00Z,27.8516,-97.4820,0.0,29.0,1111122 
TCOON,ioos:station:TCOON:074:1,2014-01-02T00:00:00Z,27.8516,-97.4820,0.0,29.1,1111122 
TCOON,ioos:station:TCOON:074:1,2014-01-02T01:00:00Z,27.8516,-97.4820,0.0,29.3,1111122 
TCOON,ioos:station:TCOON:074:1,2014-01-02T01:30:00Z,27.8516,-97.4820,0.0,29.4,1111122 
TCOON,ioos:station:TCOON:074:1,2014-01-02T02:00:00Z,27.8516,-97.4820,0.0,29.4,1111122 
TCOON,ioos:station:TCOON:074:1,2014-01-02T04:00:00Z,27.8516,-97.4820,0.0,29.5,1111122 
TCOON,ioos:station:TCOON:074:1,2014-01-02T06:00:00Z,27.8516,-97.4820,0.0,29.6,1111122 
TCOON,ioos:station:TCOON:074:1,2014-01-02T08:00:00Z,27.8516,-97.4820,0.0,29.7,1111122 
TCOON,ioos:station:TCOON:074:1,2014-01-02T08:30:00Z,27.8516,-97.4820,0.0,29.6,1111122 
TCOON,ioos:station:TCOON:074:1,2014-01-02T11:30:00Z,27.8516,-97.4820,0.0,29.3,1111122 
TCOON,ioos:station:TCOON:074:1,2014-01-02T12:00:00Z,27.8516,-97.4820,0.0,29.3,1111122 
TCOON,ioos:station:TCOON:074:1,2014-01-02T12:30:00Z,27.8516,-97.4820,0.0,29.2,1111122 
TCOON,ioos:station:TCOON:074:1,2014-01-02T14:30:00Z,27.8516,-97.4820,0.0,29.0,1111122 
TCOON,ioos:station:TCOON:074:1,2014-01-02T15:00:00Z,27.8516,-97.4820,0.0,29.1,1111122 
TCOON,ioos:station:TCOON:074:1,2014-01-02T16:00:00Z,27.8516,-97.4820,0.0,28.8,1111122 
TCOON,ioos:station:TCOON:074:1,2014-01-02T16:30:00Z,27.8516,-97.4820,0.0,28.8,1111122 
TCOON,ioos:station:TCOON:074:1,2014-01-02T18:30:00Z,27.8516,-97.4820,0.0,28.7,1111122 
TCOON,ioos:station:TCOON:074:1,2014-01-02T19:00:00Z,27.8516,-97.4820,0.0,28.7,1111122 
TCOON,ioos:station:TCOON:074:1,2014-01-02T21:00:00Z,27.8516,-97.4820,0.0,27.9,1111122 
TCOON,ioos:station:TCOON:074:1,2014-01-03T00:30:00Z,27.8516,-97.4820,0.0,28.7,1111122 
TCOON,ioos:station:TCOON:074:1,2014-01-03T01:00:00Z,27.8516,-97.4820,0.0,28.7,1111122 
TCOON,ioos:station:TCOON:074:1,2014-01-03T03:00:00Z,27.8516,-97.4820,0.0,28.6,1111122 
TCOON,ioos:station:TCOON:074:1,2014-01-03T04:00:00Z,27.8516,-97.4820,0.0,28.8,1111122 
TCOON,ioos:station:TCOON:074:1,2014-01-03T10:00:00Z,27.8516,-97.4820,0.0,29.3,1111122 
TCOON,ioos:station:TCOON:074:1,2014-01-03T10:30:00Z,27.8516,-97.4820,0.0,29.3,1111122 
TCOON,ioos:station:TCOON:074:1,2014-01-03T11:00:00Z,27.8516,-97.4820,0.0,29.4,1111122 
TCOON,ioos:station:TCOON:074:1,2014-01-03T13:30:00Z,27.8516,-97.4820,0.0,29.5,1111122 
TCOON,ioos:station:TCOON:074:1,2014-01-03T15:00:00Z,27.8516,-97.4820,0.0,29.4,1111122 
TCOON,ioos:station:TCOON:074:1,2014-01-03T16:00:00Z,27.8516,-97.4820,0.0,29.4,1111122 
TCOON,ioos:station:TCOON:074:1,2014-01-03T16:30:00Z,27.8516,-97.4820,0.0,29.4,1111122 
TCOON,ioos:station:TCOON:074:1,2014-01-03T17:00:00Z,27.8516,-97.4820,0.0,29.6,1111122 
TCOON,ioos:station:TCOON:074:1,2014-01-03T19:30:00Z,27.8516,-97.4820,0.0,31.6,1111122 
TCOON,ioos:station:TCOON:074:1,2014-01-03T22:00:00Z,27.8516,-97.4820,0.0,31.4,1111122 
TCOON,ioos:station:TCOON:074:1,2014-01-03T23:00:00Z,27.8516,-97.4820,0.0,31.4,1111122 
TCOON,ioos:station:TCOON:074:1,2014-01-04T00:00:00Z,27.8516,-97.4820,0.0,31.4,1111122 
TCOON,ioos:station:TCOON:074:1,2014-01-04T07:30:00Z,27.8516,-97.4820,0.0,31.9,1111122 
TCOON,ioos:station:TCOON:074:1,2014-01-04T09:00:00Z,27.8516,-97.4820,0.0,32.0,1111122 
TCOON,ioos:station:TCOON:074:1,2014-01-04T09:30:00Z,27.8516,-97.4820,0.0,32.1,1111122 
TCOON,ioos:station:TCOON:074:1,2014-01-04T11:30:00Z,27.8516,-97.4820,0.0,32.0,1111122 
TCOON,ioos:station:TCOON:074:1,2014-01-04T13:00:00Z,27.8516,-97.4820,0.0,31.9,1111122 
TCOON,ioos:station:TCOON:074:1,2014-01-04T16:30:00Z,27.8516,-97.4820,0.0,31.2,1111122 
TCOON,ioos:station:TCOON:074:1,2014-01-04T17:00:00Z,27.8516,-97.4820,0.0,31.3,1111122 
TCOON,ioos:station:TCOON:074:1,2014-01-04T19:00:00Z,27.8516,-97.4820,0.0,31.2,1111122 
TCOON,ioos:station:TCOON:074:1,2014-01-04T19:30:00Z,27.8516,-97.4820,0.0,31.3,1111122 
TCOON,ioos:station:TCOON:074:1,2014-01-04T20:00:00Z,27.8516,-97.4820,0.0,31.3,1111122 
TCOON,ioos:station:TCOON:074:1,2014-01-04T21:00:00Z,27.8516,-97.4820,0.0,31.4,1111122 
TCOON,ioos:station:TCOON:074:1,2014-01-04T22:00:00Z,27.8516,-97.4820,0.0,31.4,1111122 
TCOON,ioos:station:TCOON:074:1,2014-01-04T23:00:00Z,27.8516,-97.4820,0.0,31.4,1111122 
TCOON,ioos:station:TCOON:074:1,2014-01-04T23:30:00Z,27.8516,-97.4820,0.0,31.5,1111122 
TCOON,ioos:station:TCOON:074:1,2014-01-05T00:30:00Z,27.8516,-97.4820,0.0,31.3,1111122 
TCOON,ioos:station:TCOON:074:1,2014-01-05T01:30:00Z,27.8516,-97.4820,0.0,31.4,1111122 
TCOON,ioos:station:TCOON:074:1,2014-01-05T02:00:00Z,27.8516,-97.4820,0.0,31.3,1111122 
TCOON,ioos:station:TCOON:074:1,2014-01-05T02:30:00Z,27.8516,-97.4820,0.0,31.4,1111122 
TCOON,ioos:station:TCOON:074:1,2014-01-05T06:30:00Z,27.8516,-97.4820,0.0,31.2,1111122 
TCOON,ioos:station:TCOON:074:1,2014-01-05T09:00:00Z,27.8516,-97.4820,0.0,31.3,1111122 
TCOON,ioos:station:TCOON:074:1,2014-01-05T10:00:00Z,27.8516,-97.4820,0.0,31.3,1111122 
TCOON,ioos:station:TCOON:074:1,2014-01-05T10:30:00Z,27.8516,-97.4820,0.0,31.3,1111122 
TCOON,ioos:station:TCOON:074:1,2014-01-05T12:30:00Z,27.8516,-97.4820,0.0,31.4,1111122 
TCOON,ioos:station:TCOON:074:1,2014-01-05T15:30:00Z,27.8516,-97.4820,0.0,26.4,1111122 
TCOON,ioos:station:TCOON:074:1,2014-01-05T16:00:00Z,27.8516,-97.4820,0.0,26.2,1111122 
TCOON,ioos:station:TCOON:074:1,2014-01-05T17:00:00Z,27.8516,-97.4820,0.0,26.2,1111122 
TCOON,ioos:station:TCOON:074:1,2014-01-05T19:30:00Z,27.8516,-97.4820,0.0,31.2,1111122 
TCOON,ioos:station:TCOON:074:1,2014-01-05T20:30:00Z,27.8516,-97.4820,0.0,31.0,1111122 
TCOON,ioos:station:TCOON:074:1,2014-01-05T21:30:00Z,27.8516,-97.4820,0.0,31.0,1111122 
TCOON,ioos:station:TCOON:074:1,2014-01-05T23:00:00Z,27.8516,-97.4820,0.0,31.2,1111122 
TCOON,ioos:station:TCOON:074:1,2014-01-05T23:30:00Z,27.8516,-97.4820,0.0,31.3,1111122 
TCOON,ioos:station:TCOON:074:1,2014-01-06T01:00:00Z,27.8516,-97.4820,0.0,31.4,1111122 
TCOON,ioos:station:TCOON:074:1,2014-01-06T02:00:00Z,27.8516,-97.4820,0.0,31.4,1111122 
TCOON,ioos:station:TCOON:074:1,2014-01-06T03:00:00Z,27.8516,-97.4820,0.0,31.5,1111122 
TCOON,ioos:station:TCOON:074:1,2014-01-06T04:00:00Z,27.8516,-97.4820,0.0,31.5,1111122 
TCOON,ioos:station:TCOON:074:1,2014-01-06T04:30:00Z,27.8516,-97.4820,0.0,31.4,1111122 
TCOON,ioos:station:TCOON:074:1,2014-01-06T05:30:00Z,27.8516,-97.4820,0.0,31.6,1111122 
TCOON,ioos:station:TCOON:074:1,2014-01-06T06:00:00Z,27.8516,-97.4820,0.0,31.5,1111122 
TCOON,ioos:station:TCOON:074:1,2014-01-06T07:00:00Z,27.8516,-97.4820,0.0,31.6,1111122 
TCOON,ioos:station:TCOON:074:1,2014-01-06T08:00:00Z,27.8516,-97.4820,0.0,31.7,1111122 
TCOON,ioos:station:TCOON:074:1,2014-01-06T10:00:00Z,27.8516,-97.4820,0.0,31.4,1111122 
TCOON,ioos:station:TCOON:074:1,2014-01-06T11:00:00Z,27.8516,-97.4820,0.0,31.4,1111122 
TCOON,ioos:station:TCOON:074:1,2014-01-06T13:00:00Z,27.8516,-97.4820,0.0,31.6,1111122 
TCOON,ioos:station:TCOON:074:1,2014-01-06T15:00:00Z,27.8516,-97.4820,0.0,31.5,1111122 
TCOON,ioos:station:TCOON:074:1,2014-01-06T16:00:00Z,27.8516,-97.4820,0.0,31.6,1111122 
TCOON,ioos:station:TCOON:074:1,2014-01-06T17:00:00Z,27.8516,-97.4820,0.0,31.6,1111122 
TCOON,ioos:station:TCOON:074:1,2014-01-06T17:30:00Z,27.8516,-97.4820,0.0,31.7,1111122 
TCOON,ioos:station:TCOON:074:1,2014-01-06T19:00:00Z,27.8516,-97.4820,0.0,31.8,1111122 
TCOON,ioos:station:TCOON:074:1,2014-01-06T19:30:00Z,27.8516,-97.4820,0.0,32.1,1111122 
TCOON,ioos:station:TCOON:074:1,2014-01-06T20:30:00Z,27.8516,-97.4820,0.0,31.8,1111122 
TCOON,ioos:station:TCOON:074:1,2014-01-06T21:00:00Z,27.8516,-97.4820,0.0,31.9,1111122 
TCOON,ioos:station:TCOON:074:1,2014-01-06T22:00:00Z,27.8516,-97.4820,0.0,32.0,1111122 
TCOON,ioos:station:TCOON:074:1,2014-01-06T22:30:00Z,27.8516,-97.4820,0.0,32.1,1111122 
TCOON,ioos:station:TCOON:074:1,2014-01-07T00:00:00Z,27.8516,-97.4820,0.0,32.2,1111122 
TCOON,ioos:station:TCOON:074:1,2014-01-07T01:00:00Z,27.8516,-97.4820,0.0,32.2,1111122 
TCOON,ioos:station:TCOON:074:1,2014-01-07T02:30:00Z,27.8516,-97.4820,0.0,32.3,1111122 
TCOON,ioos:station:TCOON:074:1,2014-01-07T06:00:00Z,27.8516,-97.4820,0.0,32.4,1111122 
TCOON,ioos:station:TCOON:074:1,2014-01-07T09:30:00Z,27.8516,-97.4820,0.0,32.4,1111122 
TCOON,ioos:station:TCOON:074:1,2014-01-07T10:00:00Z,27.8516,-97.4820,0.0,32.4,1111122 
TCOON,ioos:station:TCOON:074:1,2014-01-07T12:30:00Z,27.8516,-97.4820,0.0,32.5,1111122 
TCOON,ioos:station:TCOON:074:1,2014-01-07T13:30:00Z,27.8516,-97.4820,0.0,32.6,1111122 
TCOON,ioos:station:TCOON:074:1,2014-01-07T14:00:00Z,27.8516,-97.4820,0.0,32.6,1111122 
TCOON,ioos:station:TCOON:074:1,2014-01-07T15:30:00Z,27.8516,-97.4820,0.0,32.6,1111122 
TCOON,ioos:station:TCOON:074:1,2014-01-07T16:30:00Z,27.8516,-97.4820,0.0,32.6,1111122 
TCOON,ioos:station:TCOON:074:1,2014-01-07T17:00:00Z,27.8516,-97.4820,0.0,32.7,1111122 
TCOON,ioos:station:TCOON:074:1,2014-01-07T18:30:00Z,27.8516,-97.4820,0.0,32.6,1111122 
TCOON,ioos:station:TCOON:074:1,2014-01-07T19:30:00Z,27.8516,-97.4820,0.0,32.5,1111122 
TCOON,ioos:station:TCOON:074:1,2014-01-07T20:30:00Z,27.8516,-97.4820,0.0,32.6,1111122 
TCOON,ioos:station:TCOON:074:1,2014-01-07T21:00:00Z,27.8516,-97.4820,0.0,32.5,1111122 
TCOON,ioos:station:TCOON:074:1,2014-01-07T22:00:00Z,27.8516,-97.4820,0.0,32.3,1111122 
TCOON,ioos:station:TCOON:074:1,2014-01-07T22:30:00Z,27.8516,-97.4820,0.0,32.2,1111122 
TCOON,ioos:station:TCOON:074:1,2014-01-07T23:00:00Z,27.8516,-97.4820,0.0,32.4,1111122 
TCOON,ioos:station:TCOON:074:1,2014-01-07T23:30:00Z,27.8516,-97.4820,0.0,32.4,1111122 
TCOON,ioos:station:TCOON:074:1,2014-01-08T00:00:00Z,27.8516,-97.4820,0.0,32.4,1111122 
TCOON,ioos:station:TCOON:074:1,2014-01-08T07:30:00Z,27.8516,-97.4820,0.0,32.5,1111122 
TCOON,ioos:station:TCOON:074:1,2014-01-08T09:30:00Z,27.8516,-97.4820,0.0,32.3,1111122 
TCOON,ioos:station:TCOON:074:1,2014-01-08T10:00:00Z,27.8516,-97.4820,0.0,32.4,1111122 
TCOON,ioos:station:TCOON:074:1,2014-01-08T10:30:00Z,27.8516,-97.4820,0.0,32.5,1111122 
TCOON,ioos:station:TCOON:074:1,2014-01-08T11:00:00Z,27.8516,-97.4820,0.0,32.6,1111122 
TCOON,ioos:station:TCOON:074:1,2014-01-08T13:30:00Z,27.8516,-97.4820,0.0,32.2,1111122 
TCOON,ioos:station:TCOON:074:1,2014-01-08T14:00:00Z,27.8516,-97.4820,0.0,32.2,1111122 
TCOON,ioos:station:TCOON:074:1,2014-01-08T16:00:00Z,27.8516,-97.4820,0.0,32.1,1111122 
TCOON,ioos:station:TCOON:074:1,2014-01-08T16:30:00Z,27.8516,-97.4820,0.0,32.1,1111122 
TCOON,ioos:station:TCOON:074:1,2014-01-08T18:30:00Z,27.8516,-97.4820,0.0,32.1,1111122 
TCOON,ioos:station:TCOON:074:1,2014-01-08T20:30:00Z,27.8516,-97.4820,0.0,32.2,1111122 
TCOON,ioos:station:TCOON:074:1,2014-01-08T21:30:00Z,27.8516,-97.4820,0.0,32.3,1111122 
TCOON,ioos:station:TCOON:074:1,2014-01-08T22:00:00Z,27.8516,-97.4820,0.0,32.3,1111122 
TCOON,ioos:station:TCOON:074:1,2014-01-09T08:00:00Z,27.8516,-97.4820,0.0,32.3,1111122 
TCOON,ioos:station:TCOON:074:1,2014-01-09T12:00:00Z,27.8516,-97.4820,0.0,32.0,1111122 
TCOON,ioos:station:TCOON:074:1,2014-01-09T13:00:00Z,27.8516,-97.4820,0.0,31.8,1111122 
TCOON,ioos:station:TCOON:074:1,2014-01-09T14:00:00Z,27.8516,-97.4820,0.0,31.6,1111122 
TCOON,ioos:station:TCOON:074:1,2014-01-09T14:30:00Z,27.8516,-97.4820,0.0,31.6,1111122 
TCOON,ioos:station:TCOON:074:1,2014-01-09T17:00:00Z,27.8516,-97.4820,0.0,31.5,1111122 
TCOON,ioos:station:TCOON:074:1,2014-01-10T01:00:00Z,27.8516,-97.4820,0.0,31.6,1111122 
TCOON,ioos:station:TCOON:074:1,2014-01-10T01:30:00Z,27.8516,-97.4820,0.0,31.7,1111122 
TCOON,ioos:station:TCOON:074:1,2014-01-10T03:00:00Z,27.8516,-97.4820,0.0,31.8,1111122 
TCOON,ioos:station:TCOON:074:1,2014-01-10T04:00:00Z,27.8516,-97.4820,0.0,31.8,1111122 
TCOON,ioos:station:TCOON:074:1,2014-01-10T05:00:00Z,27.8516,-97.4820,0.0,31.8,1111122 
TCOON,ioos:station:TCOON:074:1,2014-01-10T07:00:00Z,27.8516,-97.4820,0.0,31.6,1111122 
TCOON,ioos:station:TCOON:074:1,2014-01-10T07:30:00Z,27.8516,-97.4820,0.0,31.5,1111122 
TCOON,ioos:station:TCOON:074:1,2014-01-10T10:00:00Z,27.8516,-97.4820,0.0,31.2,1111122 
TCOON,ioos:station:TCOON:074:1,2014-01-10T10:30:00Z,27.8516,-97.4820,0.0,31.2,1111122 
TCOON,ioos:station:TCOON:074:1,2014-01-10T11:00:00Z,27.8516,-97.4820,0.0,31.2,1111122 
TCOON,ioos:station:TCOON:074:1,2014-01-10T12:00:00Z,27.8516,-97.4820,0.0,31.1,1111122 
TCOON,ioos:station:TCOON:074:1,2014-01-10T13:30:00Z,27.8516,-97.4820,0.0,31.3,1111122 
TCOON,ioos:station:TCOON:074:1,2014-01-10T14:30:00Z,27.8516,-97.4820,0.0,31.3,1111122 
TCOON,ioos:station:TCOON:074:1,2014-01-10T15:00:00Z,27.8516,-97.4820,0.0,31.2,1111122 
TCOON,ioos:station:TCOON:074:1,2014-01-10T15:30:00Z,27.8516,-97.4820,0.0,31.3,1111122 
TCOON,ioos:station:TCOON:074:1,2014-01-10T16:00:00Z,27.8516,-97.4820,0.0,31.2,1111122 
TCOON,ioos:station:TCOON:074:1,2014-01-10T16:30:00Z,27.8516,-97.4820,0.0,31.2,1111122 
TCOON,ioos:station:TCOON:074:1,2014-01-10T19:00:00Z,27.8516,-97.4820,0.0,31.0,1111122 
TCOON,ioos:station:TCOON:074:1,2014-01-10T19:30:00Z,27.8516,-97.4820,0.0,31.0,1111122 
TCOON,ioos:station:TCOON:074:1,2014-01-10T21:30:00Z,27.8516,-97.4820,0.0,30.9,1111122 
TCOON,ioos:station:TCOON:074:1,2014-01-10T22:30:00Z,27.8516,-97.4820,0.0,31.0,1111122 
TCOON,ioos:station:TCOON:074:1,2014-01-11T02:00:00Z,27.8516,-97.4820,0.0,31.9,1111122 
TCOON,ioos:station:TCOON:074:1,2014-01-11T03:00:00Z,27.8516,-97.4820,0.0,31.8,1111122 
TCOON,ioos:station:TCOON:074:1,2014-01-11T03:30:00Z,27.8516,-97.4820,0.0,31.9,1111122 
TCOON,ioos:station:TCOON:074:1,2014-01-11T05:30:00Z,27.8516,-97.4820,0.0,32.0,1111122 
TCOON,ioos:station:TCOON:074:1,2014-01-11T07:00:00Z,27.8516,-97.4820,0.0,31.6,1111122 
TCOON,ioos:station:TCOON:074:1,2014-01-11T10:30:00Z,27.8516,-97.4820,0.0,31.1,1111122 
TCOON,ioos:station:TCOON:074:1,2014-01-11T11:00:00Z,27.8516,-97.4820,0.0,31.3,1111122 
TCOON,ioos:station:TCOON:074:1,2014-01-11T11:30:00Z,27.8516,-97.4820,0.0,32.2,1111122 
TCOON,ioos:station:TCOON:074:1,2014-01-11T12:30:00Z,27.8516,-97.4820,0.0,31.6,1111122 
TCOON,ioos:station:TCOON:074:1,2014-01-11T13:30:00Z,27.8516,-97.4820,0.0,31.3,1111122 
TCOON,ioos:station:TCOON:074:1,2014-01-11T14:00:00Z,27.8516,-97.4820,0.0,31.1,1111122 
TCOON,ioos:station:TCOON:074:1,2014-01-11T16:30:00Z,27.8516,-97.4820,0.0,31.4,1111122 
TCOON,ioos:station:TCOON:074:1,2014-01-11T17:30:00Z,27.8516,-97.4820,0.0,31.4,1111122 
TCOON,ioos:station:TCOON:074:1,2014-01-11T19:00:00Z,27.8516,-97.4820,0.0,31.2,1111122 
TCOON,ioos:station:TCOON:074:1,2014-01-11T20:30:00Z,27.8516,-97.4820,0.0,31.1,1111122 
TCOON,ioos:station:TCOON:074:1,2014-01-11T21:00:00Z,27.8516,-97.4820,0.0,31.0,1111122 
TCOON,ioos:station:TCOON:074:1,2014-01-11T21:30:00Z,27.8516,-97.4820,0.0,30.9,1111122 
TCOON,ioos:station:TCOON:074:1,2014-01-11T22:30:00Z,27.8516,-97.4820,0.0,31.4,1111122 
TCOON,ioos:station:TCOON:074:1,2014-01-11T23:00:00Z,27.8516,-97.4820,0.0,31.5,1111122 
TCOON,ioos:station:TCOON:074:1,2014-01-12T00:30:00Z,27.8516,-97.4820,0.0,31.7,1111122 
TCOON,ioos:station:TCOON:074:1,2014-01-12T02:00:00Z,27.8516,-97.4820,0.0,32.0,1111122 
TCOON,ioos:station:TCOON:074:1,2014-01-12T03:30:00Z,27.8516,-97.4820,0.0,32.1,1111122 
TCOON,ioos:station:TCOON:074:1,2014-01-12T04:30:00Z,27.8516,-97.4820,0.0,32.2,1111122 
TCOON,ioos:station:TCOON:074:1,2014-01-12T05:30:00Z,27.8516,-97.4820,0.0,32.1,1111122 
TCOON,ioos:station:TCOON:074:1,2014-01-12T06:30:00Z,27.8516,-97.4820,0.0,32.1,1111122 
TCOON,ioos:station:TCOON:074:1,2014-01-12T07:00:00Z,27.8516,-97.4820,0.0,32.0,1111122 
TCOON,ioos:station:TCOON:074:1,2014-01-12T08:00:00Z,27.8516,-97.4820,0.0,32.1,1111122 
TCOON,ioos:station:TCOON:074:1,2014-01-12T10:30:00Z,27.8516,-97.4820,0.0,32.0,1111122 
TCOON,ioos:station:TCOON:074:1,2014-01-12T11:00:00Z,27.8516,-97.4820,0.0,32.0,1111122 
TCOON,ioos:station:TCOON:074:1,2014-01-12T12:00:00Z,27.8516,-97.4820,0.0,31.6,1111122 
TCOON,ioos:station:TCOON:074:1,2014-01-12T12:30:00Z,27.8516,-97.4820,0.0,31.6,1111122 
TCOON,ioos:station:TCOON:074:1,2014-01-12T13:30:00Z,27.8516,-97.4820,0.0,31.5,1111122 
TCOON,ioos:station:TCOON:074:1,2014-01-12T14:00:00Z,27.8516,-97.4820,0.0,31.4,1111122 
TCOON,ioos:station:TCOON:074:1,2014-01-12T14:30:00Z,27.8516,-97.4820,0.0,31.3,1111122 
TCOON,ioos:station:TCOON:074:1,2014-01-12T15:00:00Z,27.8516,-97.4820,0.0,31.3,1111122 
TCOON,ioos:station:TCOON:074:1,2014-01-12T15:30:00Z,27.8516,-97.4820,0.0,31.3,1111122 
TCOON,ioos:station:TCOON:074:1,2014-01-12T16:00:00Z,27.8516,-97.4820,0.0,31.3,1111122 
TCOON,ioos:station:TCOON:074:1,2014-01-12T16:30:00Z,27.8516,-97.4820,0.0,31.2,1111122 
TCOON,ioos:station:TCOON:074:1,2014-01-12T17:30:00Z,27.8516,-97.4820,0.0,31.2,1111122 
TCOON,ioos:station:TCOON:074:1,2014-01-12T18:30:00Z,27.8516,-97.4820,0.0,31.1,1111122 
TCOON,ioos:station:TCOON:074:1,2014-01-12T20:30:00Z,27.8516,-97.4820,0.0,31.2,1111122 
TCOON,ioos:station:TCOON:074:1,2014-01-12T21:30:00Z,27.8516,-97.4820,0.0,31.2,1111122 
TCOON,ioos:station:TCOON:074:1,2014-01-12T23:00:00Z,27.8516,-97.4820,0.0,31.6,1111122 
TCOON,ioos:station:TCOON:074:1,2014-01-13T05:00:00Z,27.8516,-97.4820,0.0,32.1,1111122 
TCOON,ioos:station:TCOON:074:1,2014-01-13T10:00:00Z,27.8516,-97.4820,0.0,32.0,1111122 
TCOON,ioos:station:TCOON:074:1,2014-01-13T10:30:00Z,27.8516,-97.4820,0.0,32.0,1111122 
TCOON,ioos:station:TCOON:074:1,2014-01-13T13:30:00Z,27.8516,-97.4820,0.0,31.8,1111122 
TCOON,ioos:station:TCOON:074:1,2014-01-13T14:00:00Z,27.8516,-97.4820,0.0,31.7,1111122 
TCOON,ioos:station:TCOON:074:1,2014-01-13T14:30:00Z,27.8516,-97.4820,0.0,31.7,1111122 
TCOON,ioos:station:TCOON:074:1,2014-01-13T17:00:00Z,27.8516,-97.4820,0.0,31.5,1111122 
TCOON,ioos:station:TCOON:074:1,2014-01-13T17:30:00Z,27.8516,-97.4820,0.0,31.4,1111122 
TCOON,ioos:station:TCOON:074:1,2014-01-13T19:00:00Z,27.8516,-97.4820,0.0,31.2,1111122 
TCOON,ioos:station:TCOON:074:1,2014-01-13T21:00:00Z,27.8516,-97.4820,0.0,30.7,1111122 
TCOON,ioos:station:TCOON:074:1,2014-01-13T21:30:00Z,27.8516,-97.4820,0.0,30.6,1111122 
TCOON,ioos:station:TCOON:074:1,2014-01-13T23:30:00Z,27.8516,-97.4820,0.0,30.6,1111122 
TCOON,ioos:station:TCOON:074:1,2014-01-14T00:00:00Z,27.8516,-97.4820,0.0,30.8,1111122 
TCOON,ioos:station:TCOON:074:1,2014-01-14T01:30:00Z,27.8516,-97.4820,0.0,31.7,1111122 
TCOON,ioos:station:TCOON:074:1,2014-01-14T02:30:00Z,27.8516,-97.4820,0.0,31.7,1111122 
TCOON,ioos:station:TCOON:074:1,2014-01-14T03:00:00Z,27.8516,-97.4820,0.0,31.9,1111122 
TCOON,ioos:station:TCOON:074:1,2014-01-14T03:30:00Z,27.8516,-97.4820,0.0,32.0,1111122 
TCOON,ioos:station:TCOON:074:1,2014-01-14T04:00:00Z,27.8516,-97.4820,0.0,32.0,1111122 
TCOON,ioos:station:TCOON:074:1,2014-01-14T04:30:00Z,27.8516,-97.4820,0.0,31.9,1111122 
TCOON,ioos:station:TCOON:074:1,2014-01-14T05:00:00Z,27.8516,-97.4820,0.0,32.0,1111122 
TCOON,ioos:station:TCOON:074:1,2014-01-14T06:00:00Z,27.8516,-97.4820,0.0,32.1,1111122 
TCOON,ioos:station:TCOON:074:1,2014-01-14T07:00:00Z,27.8516,-97.4820,0.0,32.2,1111122 
TCOON,ioos:station:TCOON:074:1,2014-01-14T07:30:00Z,27.8516,-97.4820,0.0,32.2,1111122 
TCOON,ioos:station:TCOON:074:1,2014-01-14T08:00:00Z,27.8516,-97.4820,0.0,32.2,1111122 
TCOON,ioos:station:TCOON:074:1,2014-01-14T08:30:00Z,27.8516,-97.4820,0.0,32.2,1111122 
TCOON,ioos:station:TCOON:074:1,2014-01-14T10:00:00Z,27.8516,-97.4820,0.0,32.2,1111122 
TCOON,ioos:station:TCOON:074:1,2014-01-14T10:30:00Z,27.8516,-97.4820,0.0,32.2,1111122 
TCOON,ioos:station:TCOON:074:1,2014-01-14T11:00:00Z,27.8516,-97.4820,0.0,32.0,1111122 
TCOON,ioos:station:TCOON:074:1,2014-01-14T11:30:00Z,27.8516,-97.4820,0.0,32.2,1111122 
TCOON,ioos:station:TCOON:074:1,2014-01-14T12:00:00Z,27.8516,-97.4820,0.0,31.9,1111122 
TCOON,ioos:station:TCOON:074:1,2014-01-14T13:00:00Z,27.8516,-97.4820,0.0,32.1,1111122 
TCOON,ioos:station:TCOON:074:1,2014-01-14T13:30:00Z,27.8516,-97.4820,0.0,32.0,1111122 
TCOON,ioos:station:TCOON:074:1,2014-01-14T14:30:00Z,27.8516,-97.4820,0.0,31.9,1111122 
TCOON,ioos:station:TCOON:074:1,2014-01-14T15:30:00Z,27.8516,-97.4820,0.0,31.8,1111122 
TCOON,ioos:station:TCOON:074:1,2014-01-14T16:00:00Z,27.8516,-97.4820,0.0,31.7,1111122 
TCOON,ioos:station:TCOON:074:1,2014-01-14T17:30:00Z,27.8516,-97.4820,0.0,29.2,1111122 
TCOON,ioos:station:TCOON:074:1,2014-01-14T19:30:00Z,27.8516,-97.4820,0.0,28.9,1111122 
TCOON,ioos:station:TCOON:074:1,2014-01-14T20:30:00Z,27.8516,-97.4820,0.0,28.9,1111122 
TCOON,ioos:station:TCOON:074:1,2014-01-14T21:00:00Z,27.8516,-97.4820,0.0,27.7,1111122 
TCOON,ioos:station:TCOON:074:1,2014-01-14T23:00:00Z,27.8516,-97.4820,0.0,29.3,1111122 
TCOON,ioos:station:TCOON:074:1,2014-01-14T23:30:00Z,27.8516,-97.4820,0.0,29.1,1111122 
TCOON,ioos:station:TCOON:074:1,2014-01-15T00:00:00Z,27.8516,-97.4820,0.0,29.1,1111122 
TCOON,ioos:station:TCOON:074:1,2014-01-15T05:30:00Z,27.8516,-97.4820,0.0,29.4,1111122 
TCOON,ioos:station:TCOON:074:1,2014-01-15T06:00:00Z,27.8516,-97.4820,0.0,29.3,1111122 
TCOON,ioos:station:TCOON:074:1,2014-01-15T06:30:00Z,27.8516,-97.4820,0.0,29.4,1111122 
TCOON,ioos:station:TCOON:074:1,2014-01-15T07:00:00Z,27.8516,-97.4820,0.0,29.4,1111122 
TCOON,ioos:station:TCOON:074:1,2014-01-15T07:30:00Z,27.8516,-97.4820,0.0,29.4,1111122 
TCOON,ioos:station:TCOON:074:1,2014-01-15T08:30:00Z,27.8516,-97.4820,0.0,29.2,1111122 
TCOON,ioos:station:TCOON:074:1,2014-01-15T09:00:00Z,27.8516,-97.4820,0.0,29.3,1111122 
TCOON,ioos:station:TCOON:074:1,2014-01-15T10:00:00Z,27.8516,-97.4820,0.0,29.3,1111122 
TCOON,ioos:station:TCOON:074:1,2014-01-15T11:00:00Z,27.8516,-97.4820,0.0,29.1,1111122 
TCOON,ioos:station:TCOON:074:1,2014-01-15T11:30:00Z,27.8516,-97.4820,0.0,29.2,1111122 
TCOON,ioos:station:TCOON:074:1,2014-01-15T13:30:00Z,27.8516,-97.4820,0.0,29.4,1111122 
TCOON,ioos:station:TCOON:074:1,2014-01-15T14:00:00Z,27.8516,-97.4820,0.0,29.3,1111122 
TCOON,ioos:station:TCOON:074:1,2014-01-15T15:00:00Z,27.8516,-97.4820,0.0,28.8,1111122 
TCOON,ioos:station:TCOON:074:1,2014-01-15T16:00:00Z,27.8516,-97.4820,0.0,28.8,1111122 